Tracking 25710 objects as of 5-Jul-2022
HD Live streaming from Space Station
objects crossing your sky now

FENGYUN 1C DEB

Track FENGYUN 1C DEB now!
10-day predictions


NORAD ID: 31299
Int'l Code: 1999-025BPH
Perigee: 366.3 km
Apogee: 509.0 km
Inclination: 96.9 °
Period: 93.2 minutes
Semi major axis: 6808 km
RCS: 0.0012 m2 (small)
Launch date: May 10, 1999
Source: People's Republic of China (PRC)
Launch site: Taiyaun Space Center, China (TSC)

Note: This is SATELLITE DEBRIS
aabbcc
Your satellite tracking list
Your tracking list is empty




NASA's NSSDC Master Catalog

Two Line Element Set (TLE):
1 31299U 99025BPH 22185.23543325  .00073143  00000-0  12373-2 0  9990
2 31299  96.8697 189.8977 0104743 133.9110 227.0848 15.45291286822777
Source of the keplerian elements: AFSPC